Location: Dackenheim
(49.5215°N, 8.1854°E)
Time: 06:09:04
(UTC+00:00)

AO-91 - Pass Details

Date: 16 March 2026
Orbit: 425 x 637 km, 97.5° (Epoch: 14 April)

Event Time Altitude Azimuth Distance (km) Brightness Sun altitude
Rises 20:04:31 0° 18° (NNE) 2,955 ? -24.3°
Reaches altitude 10° 20:06:51 10° 25° (NNE) 2,038 ? -24.7°
Enters shadow 20:07:54 16° 31° (NNE) 1,651 ? -24.8°
Exits shadow 20:35:33 -44° 190° (S) 9,541 ? -28.6°
